[[{"header":{"parameterUnit":"m.s-1","parameterCategory":1,"la1":30.2991,"la2":30.254,"lo1":-89.0895,"lo2":-89.0444,"dy":0.0017,"dx":0.0017,"nx":28,"ny":28,"refTime":"2024-07-16T03:00:00:Z","depth":0,"parameterNumber":2,"parameterNumberName":"U-component_of_WINDS"},"data":[0,0,0,0,0,0,0,0,0,0,0,0,0,0,0,0,0,0,0,0,0,0,0,0,0,0,0,0,0,0,0,0,0,0,0,0,0,0,0,0,0,0,0,0,0,0,0,0,0,0,0,0,0,0,0,0,0,0,2.8256,2.8258,0,2.8408,2.841,2.8412,2.8408,2.8406,2.8404,2.8402,2.8558,2.8564,2.857,0,0,0,0,0,0,0,0,0,0,0,0,0,2.7961,2.7966,2.8256,2.8258,2.826,2.8408,2.841,2.8412,2.8408,2.8406,2.8403,2.8401,2.8556,2.8563,2.8571,0,0,0,0,0,0,0,0,0,0,0,0,0,2.8099,2.7968,2.8256,2.8276,2.8279,2.8408,2.841,2.8413,2.8409,2.8406,2.8403,2.84,2.8554,2.8563,2.8572,2.869,0,0,2.8599,2.8603,0,0,0,0,0,0,0,0,2.8091,2.811,2.8271,2.8275,2.8279,2.8386,2.8363,2.8506,2.841,2.836,2.8402,2.8398,2.8503,2.8516,2.8552,2.8697,2.8704,2.86,2.8606,2.861,2.8612,0,0,0,0,0,0,0,2.8081,2.8103,2.8316,2.8273,2.8278,2.8277,2.8293,2.839,2.8447,2.8364,2.8364,2.8382,2.8505,2.8543,2.8555,2.8706,2.86,2.8608,2.8614,2.8617,2.8952,2.8956,0,0,0,0,0,0,2.8068,2.8095,2.8312,2.8321,2.8175,2.8285,2.8303,2.8355,2.8446,2.8457,2.8384,2.8381,2.8529,2.8545,2.8561,2.8702,2.861,2.8618,2.8623,2.8949,2.8953,2.8957,0,0,0,0,0,0,2.8061,2.8087,2.8305,2.8208,2.8236,2.8293,2.8351,2.8359,2.8397,2.8462,2.8472,2.8413,2.8527,2.8548,2.8657,2.8708,2.8622,2.8631,2.8945,2.895,2.8955,2.8988,0,0,0,0,0,0,2.8053,2.8085,2.8131,2.8209,2.8241,2.84,2.8355,2.8365,2.8413,2.841,2.8491,2.8501,2.8526,2.8643,2.8666,2.8719,2.8638,2.8941,2.8947,2.8953,2.8983,2.8994,2.9003,0,0,0,0,0,2.8042,2.8136,2.8134,2.816,2.83,2.8403,2.8421,2.8447,2.8417,2.8463,2.8504,2.8499,2.8699,2.8654,2.868,2.8736,2.8937,2.8945,2.8953,2.8978,2.8992,2.9003,0,0,0,0,0,0,2.8063,2.8146,2.8145,2.8266,2.8327,2.8402,2.8461,2.8461,2.8533,2.8527,2.8557,2.8575,2.8683,2.8721,2.867,2.8854,2.8814,2.8827,2.8825,2.8838,2.8848,2.8836,2.8645,0,0,0,0,0,2.8082,2.8158,2.8227,2.8327,2.8358,2.8404,2.845,2.8465,2.8529,2.8555,2.8604,2.8667,2.8743,2.8793,2.8868,2.8989,2.9004,2.904,2.905,2.9058,2.9069,2.9132,2.9147,2.8982,2.8982,2.8982,0,0,2.8121,2.8176,2.8223,2.8333,2.8382,2.8459,2.8426,2.8511,2.8568,2.8568,2.8673,2.8711,2.8782,2.8897,2.895,2.8932,2.9118,2.9068,2.9074,2.908,2.9141,2.9157,2.917,2.8987,2.8986,2.8986,0,0,2.8232,2.8283,2.837,2.8419,2.8493,2.8522,2.8543,2.8617,2.8642,2.8747,2.8748,2.8817,2.8949,2.8999,2.9042,2.9167,2.9164,2.9191,2.9244,2.9305,2.9318,2.9329,2.9371,2.9386,2.9202,2.9202,2.9202,0,2.8272,2.8389,2.8415,2.8498,2.8545,2.8548,2.8635,2.8682,2.8776,2.8808,2.8787,2.895,2.8999,2.9123,2.9153,2.9189,2.9212,2.9181,2.9314,2.9326,2.9337,2.9377,2.9393,2.9204,2.9204,2.9204,2.9203,0,2.8432,2.8513,2.8574,2.8663,2.8718,2.8803,2.884,2.8892,2.8901,2.8933,2.9038,2.9097,2.9181,2.9212,2.9223,2.9337,2.9323,2.9308,2.9268,2.9355,2.9393,2.9409,2.9208,2.9207,2.9206,2.9206,0,0,2.8561,2.8661,2.8683,2.8722,2.8802,2.8865,2.8949,2.9031,2.9072,2.9138,2.9207,2.9317,2.9302,2.9351,2.9367,2.9421,2.9512,2.9399,2.9401,2.9415,2.9637,2.9646,2.9664,2.9511,2.9514,2.9517,2.963,0,2.8677,2.8826,2.8851,2.8981,2.9054,2.9056,2.9129,2.9185,2.9216,2.9282,2.9317,2.9393,2.937,2.9398,2.9452,2.949,2.9557,2.9483,2.9574,2.9577,2.9554,2.9685,2.9695,2.98,2.9646,2.9648,2.965,0,2.8834,2.89,2.9037,2.9104,2.9136,2.9201,2.9275,2.9339,2.9402,2.9421,2.9473,2.9482,2.9567,2.9525,2.9642,2.959,2.9629,2.9654,2.9658,2.9666,2.9617,2.9693,2.9834,2.9848,2.9674,2.9673,2.9671,0,2.891,2.9034,2.9131,2.9165,2.9246,2.9291,2.9327,2.9387,2.9433,2.9499,2.9528,2.9603,2.9644,2.9701,2.9729,2.9696,2.9843,2.9804,2.9859,2.9858,2.9888,2.9885,3.0034,2.9918,2.9917,2.9917,2.9917,0,2.9037,2.9119,2.9166,2.9225,2.9317,2.9343,2.9434,2.9468,2.9521,2.9586,2.9594,2.9655,2.9689,2.9755,2.9778,2.9869,2.9888,2.9904,2.9909,2.9902,2.9899,2.9926,2.9919,2.9921,2.992,2.992,2.9919,0,2.9137,2.9172,2.9276,2.9344,2.9363,2.9427,2.9484,2.9541,2.9571,2.9653,2.9674,2.9721,2.9798,2.9832,2.9928,2.9943,3.0046,3.0047,3.0024,3.0025,3.0077,3.007,3.0247,3.027,3.014,3.0141,3.0142,0,2.9214,2.9277,2.9351,2.9394,2.9431,2.9502,2.9548,2.9576,2.9624,2.9698,2.9745,2.9822,2.9885,3.0008,3.005,3.0122,3.0123,3.018,3.0134,3.0124,3.0121,3.0115,3.012,3.0188,3.0189,3.019,3.0191,0,2.9346,2.9359,2.9426,2.9497,2.9552,2.961,2.9667,2.9702,2.9738,2.9791,2.9869,2.9918,3.0014,3.0089,3.0164,3.02,3.0201,3.0205,3.0221,3.0214,3.0196,3.0203,3.0044,3.0201,3.02,3.0199,3.0198,3.0198,2.9436,2.949,2.9549,2.9622,2.9667,2.9719,2.9774,2.981,2.9876,2.9955,2.9968,3.005,3.0108,3.0208,3.0247,3.0311,3.0297,3.0321,3.0327,3.0331,3.0333,3.0188,3.0325,3.0325,3.0325,3.0324,3.0324,0,2.9565,2.9603,2.9669,2.9747,2.9803,2.9799,2.986,2.9907,2.998,3.0034,3.0095,3.0183,3.0255,3.0302,3.0375,3.0416,3.0418,3.0434,3.043,3.0438,3.0343,3.032,3.0431,3.0431,3.0431,3.0431,3.0431,3.0431,2.9639,2.9731,2.975,2.9863,2.99,2.9979,3.0014,3.0061,3.0104,3.0202,3.0261,3.0291,3.0342,3.0417,3.0483,3.0495,3.052,3.0536,3.0547,3.0456,3.0445,3.0434,3.0413,3.0542,3.0542,3.0636,3.0637,3.0637]},{"header":{"parameterUnit":"m.s-1","parameterCategory":1,"la1":30.2991,"la2":30.254,"lo1":-89.0895,"lo2":-89.0444,"dy":0.0017,"dx":0.0017,"nx":28,"ny":28,"refTime":"2024-07-16T03:00:00:Z","depth":0,"parameterNumber":3,"parameterNumberName":"V-component_of_WINDS"},"data":[0,0,0,0,0,0,0,0,0,0,0,0,0,0,0,0,0,0,0,0,0,0,0,0,0,0,0,0,0,0,0,0,0,0,0,0,0,0,0,0,0,0,0,0,0,0,0,0,0,0,0,0,0,0,0,0,0,0,1.3487,1.3487,0,1.3576,1.3577,1.3578,1.3554,1.3552,1.355,1.3548,1.3641,1.3645,1.3649,0,0,0,0,0,0,0,0,0,0,0,0,0,1.3295,1.3299,1.3486,1.3488,1.3489,1.3576,1.3577,1.3578,1.3554,1.3552,1.355,1.3547,1.364,1.3645,1.365,0,0,0,0,0,0,0,0,0,0,0,0,0,1.3381,1.33,1.3486,1.3487,1.3488,1.3575,1.3577,1.3578,1.3554,1.3552,1.3549,1.3546,1.3638,1.3644,1.365,1.3743,0,0,1.3669,1.3672,0,0,0,0,0,0,0,0,1.3376,1.3388,1.3486,1.3487,1.3488,1.3551,1.3543,1.3634,1.3555,1.3529,1.3548,1.3545,1.3613,1.3621,1.3644,1.3747,1.3751,1.367,1.3674,1.3676,1.3678,0,0,0,0,0,0,0,1.337,1.3384,1.3522,1.3487,1.3489,1.3483,1.3492,1.356,1.3585,1.3531,1.353,1.3541,1.3614,1.3638,1.3646,1.3752,1.367,1.3675,1.3679,1.3682,1.3934,1.3937,0,0,0,0,0,0,1.3363,1.3379,1.3519,1.3524,1.3424,1.3489,1.3499,1.3534,1.3585,1.359,1.3543,1.3539,1.3629,1.3639,1.3649,1.376,1.3676,1.3682,1.3686,1.3931,1.3934,1.3938,0,0,0,0,0,0,1.3359,1.3376,1.3515,1.3451,1.3469,1.3495,1.3534,1.3537,1.3561,1.3593,1.3598,1.3563,1.3627,1.3641,1.3719,1.3763,1.3685,1.3691,1.3927,1.3932,1.3936,1.3982,0,0,0,0,0,0,1.3354,1.3374,1.341,1.3452,1.3472,1.3584,1.3537,1.354,1.3572,1.3568,1.3614,1.3619,1.3626,1.371,1.3725,1.377,1.3695,1.3924,1.3929,1.3935,1.3977,1.3988,1.3997,0,0,0,0,0,1.3347,1.342,1.3412,1.3429,1.3517,1.3587,1.3598,1.3605,1.3576,1.3611,1.3631,1.3617,1.3755,1.3718,1.3735,1.3782,1.3921,1.3928,1.3934,1.3972,1.3986,1.3997,0,0,0,0,0,0,1.3383,1.3426,1.3417,1.3506,1.3543,1.3582,1.3628,1.3618,1.3664,1.3659,1.3665,1.3676,1.3756,1.3777,1.3735,1.3874,1.3834,1.3844,1.3857,1.387,1.388,1.3873,1.3701,0,0,0,0,0,1.3401,1.3454,1.3488,1.3564,1.3582,1.3602,1.3632,1.3634,1.3672,1.3688,1.3714,1.3752,1.3804,1.3838,1.3887,1.3979,1.3989,1.402,1.403,1.4038,1.4047,1.4096,1.411,1.3959,1.3959,1.3959,0,0,1.344,1.347,1.3503,1.3572,1.36,1.3654,1.3615,1.3675,1.3715,1.3697,1.3773,1.3793,1.3836,1.3921,1.396,1.3941,1.409,1.4047,1.4053,1.4058,1.4104,1.4119,1.4131,1.3964,1.3963,1.3962,0,0,1.3538,1.3566,1.3631,1.366,1.3703,1.3715,1.3731,1.3772,1.3784,1.386,1.3847,1.3895,1.3984,1.4015,1.4042,1.4149,1.4137,1.4165,1.4217,1.4265,1.4277,1.4287,1.4325,1.4338,1.4174,1.4174,1.4174,0,1.3581,1.3662,1.3666,1.3726,1.3756,1.3742,1.3807,1.3835,1.3893,1.3914,1.3892,1.4002,1.403,1.4122,1.4147,1.417,1.4188,1.416,1.4275,1.4285,1.4295,1.4331,1.4345,1.4177,1.4177,1.4176,1.4176,0,1.3711,1.3768,1.3815,1.387,1.3905,1.3968,1.3981,1.4017,1.4015,1.4029,1.4106,1.4138,1.4193,1.4215,1.4214,1.4306,1.4293,1.4273,1.4233,1.4312,1.4346,1.436,1.4181,1.418,1.4179,1.4178,0,0,1.3836,1.3891,1.3908,1.3932,1.3978,1.4021,1.4083,1.4136,1.4166,1.4205,1.4257,1.4331,1.4312,1.4343,1.4345,1.4387,1.4469,1.4362,1.4363,1.438,1.4571,1.4586,1.4602,1.4461,1.4464,1.4466,1.4567,0,1.3938,1.4045,1.405,1.4148,1.4199,1.4185,1.4238,1.4272,1.4287,1.4332,1.4348,1.4401,1.4372,1.4391,1.4431,1.445,1.4507,1.4443,1.4509,1.4511,1.4498,1.462,1.4636,1.473,1.458,1.4583,1.4584,0,1.4071,1.4113,1.4216,1.4253,1.4274,1.4322,1.437,1.4414,1.4452,1.4459,1.4493,1.4488,1.4551,1.4508,1.4594,1.455,1.4577,1.459,1.4594,1.46,1.4553,1.4629,1.4761,1.4775,1.4605,1.4604,1.4602,0,1.4151,1.4234,1.4305,1.4326,1.4371,1.4405,1.4425,1.446,1.4491,1.4533,1.4553,1.4602,1.4629,1.4667,1.4675,1.4644,1.4761,1.4719,1.4768,1.4768,1.4794,1.4793,1.4932,1.4812,1.4812,1.4811,1.4811,0,1.4263,1.4327,1.4342,1.4386,1.4456,1.446,1.453,1.4548,1.4578,1.4625,1.4616,1.4661,1.467,1.4716,1.4723,1.4792,1.4805,1.4812,1.4813,1.4813,1.4812,1.4831,1.4825,1.4815,1.4814,1.4813,1.4813,0,1.4365,1.4377,1.4455,1.449,1.45,1.455,1.4581,1.4623,1.4635,1.4695,1.4709,1.473,1.4783,1.4796,1.486,1.4865,1.4946,1.4941,1.4934,1.4933,1.4982,1.4977,1.5138,1.5159,1.5025,1.5027,1.5028,0,1.4436,1.4484,1.4524,1.4555,1.4576,1.4626,1.4657,1.4663,1.4695,1.474,1.4777,1.4829,1.4872,1.4958,1.4979,1.5027,1.5023,1.5076,1.5031,1.5028,1.5023,1.502,1.5025,1.5085,1.5087,1.5088,1.5089,0,1.4561,1.4564,1.4609,1.4656,1.4693,1.473,1.4766,1.4792,1.4802,1.4839,1.4894,1.4926,1.4991,1.5043,1.5091,1.5112,1.5102,1.5103,1.5116,1.5117,1.511,1.5114,1.4957,1.5099,1.5098,1.5097,1.5097,1.5096,1.4649,1.469,1.4724,1.4775,1.4802,1.4835,1.4875,1.4893,1.4938,1.499,1.4991,1.505,1.5085,1.5149,1.5172,1.5218,1.5202,1.5222,1.5227,1.5232,1.5236,1.5102,1.5227,1.5227,1.5226,1.5226,1.5226,0,1.4772,1.4793,1.4839,1.4888,1.4928,1.4914,1.4952,1.4986,1.5038,1.507,1.5112,1.5173,1.5223,1.5247,1.5296,1.5329,1.5325,1.5341,1.5339,1.5344,1.5248,1.5231,1.5343,1.5343,1.5343,1.5343,1.5343,1.5343,1.4841,1.491,1.4918,1.5,1.502,1.5077,1.51,1.513,1.5156,1.5226,1.5267,1.5281,1.531,1.5361,1.5406,1.5412,1.543,1.5448,1.5452,1.5362,1.5351,1.5339,1.5323,1.5453,1.5453,1.5543,1.5544,1.5545]}]]